Retour au catalogue

AEHF 1

USA 214

ActifMilitaireGEO
NORAD 36868·PAYLOAD·🇺🇸 United States

Lancé Aug 14, 2010 depuis Cape Canaveral Space Force Station

Loading…

TLE

FraisSource: Space-Track

Époque: Sep 14, 2026, 13:56 UTC

1 36868U 10039A   26257.58108104  .00000142  00000-0  00000-0 0  9990
2 36868   8.4420  66.8671 0003664  94.3952  71.5454  1.00278157 54552

Suivez AEHF 1 en temps réel avec AllMySat

Download on the App Store